sat.trackr.live / text

‹ back to catalog

ONEWEB-0700

NORAD 61606 · 2024-188N

PAYLOAD ACTIVE UNKNOWN

§ Identity

Operator
Country
UK
Launch date
2024-10-20
Launch site
AFWTR
Launch vehicle
Mass (kg)
RCS (m²)

Purposes: comms

External: N2YO · Heavens-Above · Gunter

§ Orbital elements

Epoch: 2026-09-19T16:06:29.070720Z

Period
109.89 min
Inclination
87.8924°
Eccentricity
0.0001244
Mean motion
13.10375756 rev/d
Perigee alt
1,220.8 km
Apogee alt
1,222.7 km
Semi-major
7,599.8 km
B*
-6.6607e-4
RAAN
17.3807°
Arg perigee
90.2836°
Mean anomaly
269.8434°
Rev number
9,567

§ Raw data

ONEWEB-07001 61606U 24188N   26262.67116980 -.00000220  00000+0 -66607-3 0  99912 61606  87.8924  17.3807 0001244  90.2836 269.8434 13.10375756 95675

JSON: /api/v1/satellites/61606 · /tle

For live sub-satellite position, see the globe view (requires WebGL).

§ Visibility from observer

Set your observer location to see the next 7 days of passes ≥ 10°. The values pass through the URL so the page stays shareable.

No JS? Fill the form by hand. The geolocation button needs JavaScript.